Theta_e
307 309 311 312 312 311 308 306 303 302 301 301 302 302 303 302 301 302 303 302 302 301 301 302 302 302 302 300 299 295 299 299 301 299 302 300 301 300 299 300 299 298 297 297 298
308 310 312 312 312 312 312 310 305 302 302 301 302 302 303 303 302 305 304 300 301 300 301 301 301 302 300 301 299 298 298 300 299 299 300 299 299 300 300 300 299 298 296 296 297
308 310 311 312 312 313 311 304 304 302 301 301 301 302 303 303 303 305 300 300 301 301 301 301 301 302 303 301 301 299 299 300 301 300 298 299 299 298 298 298 297 297 297 294 295
309 310 311 312 312 313 311 303 301 301 300 301 301 302 303 303 307 302 300 301 301 301 301 301 301 302 302 303 301 301 300 300 301 302 299 299 298 298 296 297 298 295 295 294 293
311 311 311 312 313 313 313 304 301 300 300 301 302 302 304 302 302 301 300 301 302 301 301 301 302 302 303 302 301 301 301 300 300 299 298 298 298 298 296 295 294 295 295 294 293
314 313 313 313 313 313 313 306 302 300 301 301 302 302 304 302 300 300 300 301 302 301 300 300 300 300 301 300 300 300 300 299 299 300 299 299 298 297 299 295 294 294 294 293 293
314 314 314 314 314 313 313 308 303 301 302 302 302 304 304 300 300 300 300 300 301 302 300 301 301 300 300 300 300 300 300 299 299 299 299 298 299 298 298 296 296 293 293 293 292
314 314 314 314 313 314 313 307 303 301 301 303 303 305 299 300 300 300 300 301 301 301 301 300 301 300 300 300 300 301 301 300 301 299 299 299 300 301 296 295 296 294 292 291 292
314 313 313 312 312 313 312 305 302 301 302 303 303 301 300 299 299 300 300 300 300 300 301 301 300 299 300 298 298 300 299 301 302 300 299 299 301 300 295 295 296 294 292 291 290
312 311 310 310 311 313 309 303 302 302 302 302 301 302 300 299 299 299 299 300 300 299 300 300 297 298 298 298 301 300 301 301 302 300 299 299 298 299 299 295 295 293 292 291 290
308 308 308 309 311 313 304 303 304 304 301 303 301 299 299 298 299 299 299 299 299 299 299 300 300 300 298 299 300 301 302 301 301 299 299 299 298 299 299 296 294 293 292 290 289
304 306 308 308 312 307 302 299 300 300 306 301 298 298 298 298 298 298 299 298 299 299 300 300 300 300 300 299 300 300 301 301 300 298 299 297 297 299 298 296 294 294 292 291 289
302 303 307 308 311 305 302 300 301 302 305 304 297 298 297 298 297 299 298 299 300 300 300 300 301 301 301 301 301 301 301 301 300 299 296 295 297 296 297 295 294 292 290 290 288
303 304 305 309 309 303 301 301 302 302 304 306 298 298 298 297 298 297 297 299 300 300 299 299 300 301 301 301 300 301 300 300 300 296 297 297 298 299 297 295 295 294 290 288 286
303 304 305 308 307 304 302 301 302 302 304 300 297 297 297 297 297 298 297 297 299 299 298 300 301 301 300 302 299 298 298 298 298 295 291 299 298 298 295 300 298 295 291 287 285
303 303 306 308 305 303 301 302 302 304 305 302 297 298 300 298 298 298 298 297 297 298 298 298 298 299 298 298 298 298 299 299 296 296 295 298 299 300 297 294 296 294 291 289 285
304 305 306 306 304 303 302 302 302 304 302 304 301 300 299 299 299 300 301 300 299 301 303 303 300 297 299 300 298 300 304 309 300 293 301 297 298 301 294 290 287 287 288 283 284
303 305 305 305 303 303 304 302 302 292 298 304 301 305 303 300 302 303 301 304 302 302 303 302 303 298 298 300 303 302 302 306 300 297 301 297 299 300 289 282 278 280 279 282 284
303 304 303 301 302 303 300 297 294 296 305 306 304 302 304 303 300 301 303 302 301 301 301 299 300 297 297 297 299 302 303 296 291 289 299 298 295 293 294 287 282 284 287 286 284
303 303 302 302 302 304 301 301 296 303 304 304 301 305 306 306 301 302 302 301 299 300 300 300 298 299 297 297 295 299 297 302 298 302 299 296 292 295 289 289 287 285 287 284 282
303 299 300 301 303 304 296 293 301 302 303 304 305 303 306 305 304 302 301 302 300 300 299 298 298 300 299 298 301 298 300 297 296 292 293 294 297 286 286 283 286 287 287 281 280
304 299 299 301 304 299 296 299 302 301 299 303 301 303 303 297 300 301 301 301 299 300 300 298 301 301 302 295 295 296 297 297 297 291 282 287 297 281 280 276 275 284 286 281 278
303 299 299 302 303 299 301 301 300 300 301 301 302 299 293 298 302 299 302 298 298 298 298 299 302 303 302 298 295 297 295 291 287 287 289 293 297 279 273 280 283 283 281 279 279
300 299 299 299 298 299 301 301 300 300 301 301 303 300 298 298 295 300 301 299 297 298 301 299 299 302 306 304 297 297 293 291 292 287 286 289 293 298 292 286 290 283 278 273 273
301 290 288 298 300 300 300 294 298 301 300 301 301 300 300 301 298 300 299 298 298 298 299 299 296 298 300 300 299 299 297 293 295 289 295 287 283 293 291 289 286 273 275 276 275
301 295 294 286 297 300 300 298 300 302 301 301 300 297 299 299 301 296 296 298 298 297 297 296 296 297 298 298 292 296 294 292 294 293 286 284 294 289 279 267 276 281 274 277 274
300 298 296 293 294 297 299 300 301 302 301 300 298 300 300 298 296 295 295 296 296 294 296 296 294 294 297 297 298 298 292 282 282 279 287 290 290 271 285 284 281 283 274 279 277
Wind_Speed
7 8 9 10 11 12 12 13 13 10 10 10 8 7 7 9 9 5 2 3 6 8 6 4 3 3 2 3 3 3 3 3 5 7 3 1 3 1 0 3 1 1 2 2 17
7 8 9 10 11 11 13 14 13 11 10 9 8 7 7 8 7 3 1 6 6 6 3 5 2 4 3 2 2 4 3 7 3 3 3 3 3 4 0 2 3 3 1 8 16
6 7 9 9 11 12 15 14 12 11 11 9 6 5 5 7 2 2 3 5 5 5 4 2 0 1 2 1 2 3 5 3 2 2 4 3 2 3 4 6 9 8 6 9 10
7 8 9 11 12 13 16 15 13 12 10 8 5 3 3 4 3 2 5 4 4 4 3 2 2 2 2 3 2 2 4 3 2 2 3 3 1 4 8 6 2 9 5 7 9
8 10 11 12 13 14 17 16 15 12 8 6 1 1 2 3 1 3 4 5 3 3 4 2 1 1 2 3 3 4 2 2 3 2 4 1 6 6 11 10 7 4 5 9 9
8 10 12 13 14 16 17 17 16 11 7 3 1 2 3 0 3 3 5 4 5 4 4 4 1 1 1 2 3 1 3 5 6 5 4 4 3 4 4 0 7 7 9 9 9
10 11 13 14 15 16 17 17 15 9 6 1 2 3 3 3 1 4 4 4 5 4 2 3 2 1 1 2 2 2 6 6 6 3 5 4 7 11 6 3 6 9 8 8 8
10 12 13 15 16 15 17 17 10 5 3 1 1 1 2 0 1 2 3 2 3 3 3 2 2 1 1 1 3 2 1 4 1 5 1 4 8 4 4 6 9 9 8 8 8
9 11 13 15 17 14 16 13 5 2 1 0 1 2 3 1 1 1 2 1 2 2 2 1 2 2 2 2 4 2 4 5 6 4 2 5 6 4 4 5 9 8 8 8 6
8 11 13 14 15 11 13 8 2 1 1 1 1 2 1 1 1 1 2 1 2 2 3 3 4 2 2 3 5 4 4 4 6 1 2 6 14 16 11 8 11 10 9 8 8
10 11 13 15 14 10 9 2 4 2 1 3 1 2 1 0 0 3 3 2 2 4 1 3 1 8 9 7 1 1 3 5 4 1 3 8 10 19 15 7 9 9 8 8 8
14 13 12 14 11 9 5 4 2 1 5 0 2 1 1 0 2 2 2 2 2 1 2 3 7 6 4 4 6 4 4 6 5 2 1 8 16 18 13 6 5 4 6 7 3
17 16 11 10 9 3 5 4 3 2 1 3 0 1 0 1 1 3 3 1 1 1 4 6 2 3 3 3 3 3 4 4 4 4 0 7 8 6 1 3 3 4 3 4 7
18 18 10 5 2 1 2 2 2 1 3 2 0 1 1 1 2 2 3 1 1 2 1 5 4 2 2 3 4 2 1 2 1 3 3 2 6 7 3 7 4 6 4 4 2
17 13 3 4 1 1 3 1 1 1 4 1 1 1 1 2 0 3 2 3 2 1 4 5 2 1 1 3 4 5 3 1 2 3 4 1 1 8 4 3 2 4 7 5 4
15 10 5 5 3 4 3 2 1 5 6 1 1 1 1 2 1 1 2 2 1 2 2 6 2 0 3 2 3 4 3 2 3 2 2 1 2 6 3 5 3 2 5 4 5
13 10 3 4 2 3 3 1 5 3 4 3 1 1 0 1 2 3 3 4 1 5 4 3 1 2 3 1 3 3 3 3 3 2 4 2 1 9 5 4 5 5 8 6 5
8 7 1 3 4 4 2 4 3 4 4 1 1 2 2 5 2 4 2 2 3 1 2 2 5 3 3 2 1 1 2 2 6 2 3 2 6 5 5 4 6 6 8 7 7
4 3 1 1 3 3 4 3 7 5 1 2 2 3 2 2 1 4 1 1 2 3 3 1 5 2 3 1 1 4 3 2 4 1 1 2 7 8 2 5 5 8 6 8 7
6 2 1 1 3 2 3 4 2 0 1 1 3 2 1 1 4 3 1 1 2 1 1 1 4 1 2 1 3 2 2 2 0 1 3 4 5 5 4 4 5 6 7 7 6
3 1 1 2 3 2 3 6 3 3 1 2 3 3 2 2 1 2 2 0 1 2 0 3 2 2 2 5 4 3 2 1 2 2 4 2 6 7 6 6 6 8 8 7 6
3 1 1 3 2 1 3 5 4 3 1 1 2 1 2 2 2 2 3 3 2 2 2 2 2 4 5 2 3 1 2 3 3 4 0 2 6 3 6 4 3 10 10 5 3
1 2 1 1 4 2 3 0 3 4 4 3 3 1 1 4 1 3 2 1 3 2 3 2 2 4 3 2 2 3 3 2 2 2 5 4 6 1 3 6 7 9 8 5 5
1 2 0 1 1 5 4 6 4 0 3 3 2 3 2 2 1 1 2 1 5 2 4 3 3 5 4 1 2 2 3 4 4 2 3 7 10 17 9 9 13 6 6 6 6
2 4 4 3 3 3 3 5 5 3 1 3 3 5 4 3 2 4 1 2 3 2 1 1 4 3 8 12 8 10 8 6 8 5 6 4 6 15 15 11 9 6 8 7 7
2 3 1 2 3 5 8 4 6 3 6 4 5 2 4 4 5 6 4 3 3 1 3 1 3 2 6 5 1 5 8 11 11 7 9 5 23 10 6 5 6 7 5 8 7
3 2 3 2 2 4 5 6 5 7 5 3 6 3 4 3 2 2 1 2 1 3 3 3 1 3 4 2 7 4 4 4 2 3 5 4 9 5 11 9 7 8 5 8 8
Wind_Direction
21 14 12 11 11 5 2 358 357 353 352 346 343 335 327 322 320 319 313 335 327 330 329 341 63 50 68 81 75 135 60 229 239 167 236 211 170 250 45 150 206 242 202 305 157
7 7 9 9 7 3 356 350 349 347 345 341 335 336 334 336 335 320 295 339 339 349 8 43 37 359 42 62 41 98 143 224 219 212 196 191 184 195 250 211 247 250 192 154 161
359 358 359 4 3 357 353 351 346 342 337 333 330 330 340 348 356 25 5 348 350 1 18 14 341 75 97 107 183 162 206 208 250 202 158 182 238 202 185 240 221 210 193 184 189
348 348 351 353 355 351 352 348 343 333 330 328 325 331 350 18 337 10 352 355 354 350 359 23 2 94 143 203 163 235 248 244 290 181 155 204 186 259 204 223 177 219 190 169 192
345 343 344 345 346 348 349 346 346 336 330 326 317 35 59 39 291 353 349 354 352 3 40 12 294 137 220 200 161 207 258 246 283 196 241 313 242 246 257 238 242 205 177 197 208
344 339 339 340 340 342 344 344 344 340 338 349 95 113 97 293 101 10 358 10 25 37 31 28 357 253 280 254 188 339 286 269 267 225 232 211 257 126 256 342 191 185 212 213 215
335 331 332 335 335 339 338 338 340 338 340 36 139 125 90 204 74 6 21 36 34 45 69 46 20 63 53 293 340 343 320 313 231 211 227 164 275 233 219 147 200 221 223 227 224
307 313 324 327 331 330 332 334 333 336 340 39 102 96 186 233 193 350 354 32 37 41 78 74 27 85 17 315 347 324 50 326 345 140 192 139 266 272 149 169 243 242 236 226 226
301 309 317 319 323 322 328 332 335 343 351 115 349 40 296 116 80 34 13 14 0 31 48 69 64 91 37 89 340 341 256 216 310 183 132 189 275 243 135 183 253 253 247 239 231
309 307 316 324 323 320 328 332 333 274 219 206 62 8 4 348 68 49 38 29 44 3 24 43 44 74 54 117 232 239 252 257 260 346 216 246 256 274 263 210 244 252 252 252 232
327 329 328 330 330 327 332 316 16 318 46 232 143 275 270 80 135 43 30 57 43 55 251 11 68 228 215 204 233 120 234 265 260 26 280 252 275 274 278 237 258 264 264 255 244
320 315 323 330 336 327 329 82 97 144 309 174 287 277 67 70 13 26 1 74 63 268 104 10 244 252 244 196 221 233 263 267 272 122 260 304 292 280 286 262 227 249 286 265 196
334 323 302 328 322 316 67 89 98 39 212 313 289 91 19 69 61 359 18 73 166 249 193 198 210 15 189 202 184 222 209 239 252 324 47 325 290 317 301 275 252 236 262 263 217
334 318 308 327 260 152 68 85 101 104 53 243 39 1 26 83 60 358 24 35 256 264 264 235 284 250 255 270 146 280 252 140 249 45 265 25 283 300 343 301 265 266 263 263 179
339 327 253 236 176 155 156 163 222 215 353 349 246 295 63 80 299 15 356 43 236 246 87 267 346 343 223 230 154 234 21 67 98 95 41 7 358 270 357 311 334 314 251 235 215
347 342 193 195 200 167 159 154 230 45 255 81 107 196 53 30 60 354 22 35 142 289 225 254 287 111 221 60 86 140 45 58 39 104 347 173 154 278 234 207 290 307 312 274 231
352 335 203 181 166 167 145 109 44 148 320 281 201 84 37 351 45 44 25 345 350 19 354 311 66 71 12 109 66 71 53 299 318 17 223 126 239 249 263 236 215 265 302 289 287
332 319 112 156 144 144 152 55 137 238 223 335 6 21 55 13 30 351 2 3 59 25 327 13 322 28 355 57 139 147 168 209 246 236 300 139 237 254 218 245 252 261 263 280 283
318 264 169 31 70 152 76 85 208 202 237 36 19 78 271 109 93 354 247 180 111 203 160 343 279 100 61 100 180 136 207 108 111 155 357 269 280 301 263 310 313 280 288 293 296
343 279 168 38 289 125 82 239 186 144 79 199 154 168 268 72 19 10 297 147 158 195 224 227 303 107 111 69 326 274 114 173 313 288 284 286 282 242 312 279 296 312 282 295 300
259 125 222 190 163 91 176 222 211 101 116 222 207 208 131 142 168 284 264 53 170 207 351 142 137 261 131 200 182 162 187 189 87 115 177 297 272 213 220 222 242 294 298 298 309
230 285 173 170 127 133 184 190 160 149 83 144 315 211 134 130 182 255 239 235 162 144 169 212 248 269 243 62 30 11 153 179 140 253 140 144 274 228 236 253 240 284 296 296 265
254 160 98 148 186 234 151 85 181 173 162 162 224 198 130 151 216 224 295 120 171 190 184 171 235 300 281 161 138 236 176 131 124 78 201 146 263 268 282 289 267 275 298 311 297
67 192 295 76 117 163 195 231 202 101 136 153 195 135 130 134 311 232 235 203 193 224 198 174 248 232 257 311 137 243 229 202 140 113 191 231 285 289 308 312 317 306 301 303 291
210 231 189 207 219 190 129 177 177 174 181 178 214 218 175 157 228 234 251 261 213 258 205 212 256 225 259 269 243 251 229 193 201 199 210 265 234 284 292 291 292 292 295 305 292
210 155 163 227 150 183 195 240 216 137 160 210 224 224 189 193 205 204 194 203 254 149 183 176 275 297 277 259 294 267 240 222 229 236 269 317 285 298 300 303 286 282 292 294 283
246 168 119 270 137 122 205 195 198 142 205 193 190 168 205 240 67 115 255 282 212 178 211 196 252 346 273 299 301 295 243 188 202 242 162 196 240 333 300 293 270 285 235 268 274